This demonstration page uses our WeatherBlox Daily Observations layout. Learn more.

Left ArrowRight Arrow

Hourly Observations for January 11, 2016

Temp ( °F °C ) Dew Point ( °F °C ) Humidity (%) Winds ( mph kmh ) Pressure ( in mb ) Visibility ( mi km ) Precip ( " mm )
12:54 am 00:54 Clear 19 -7.2 14 -10 81 81 SW 6 9 30.04 1017 10 16 0.00 0.00
1:54 am 01:54 Clear 18 -7.8 14 -10 84 84 VRB 3 6 30.02 1017 9 14 0.00 0.00
2:54 am 02:54 Clear 17 -8.3 14 -10 88 88 SSE 5 7 30.01 1016 8 13 0.00 0.00
3:54 am 03:54 Clear 18 -7.8 14 -10 84 84 Calm 30.00 1016 9 14 0.00 0.00
4:54 am 04:54 Cloudy 18 -7.8 14 -10 84 84 SSW 6 9 29.99 1016 9 14 0.00 0.00
5:54 am 05:54 Cloudy 21 -6.1 17 -8.3 85 85 S 3 6 29.98 1015 9 14 0.00 0.00
6:54 am 06:54 Cloudy 23 -5 19 -7.2 85 85 Calm 29.98 1015 10 16 0.00 0.00
7:54 am 07:54 Cloudy 23 -5 20 -6.7 88 88 Calm 29.99 1016 9 14 0.00 0.00
8:54 am 08:54 Cloudy with Light Snow 27 -2.8 22 -5.6 81 81 Calm 30.01 1016 4 6 0.00 0.03
9:20 am 09:20 Cloudy with Light Snow 28 -2 25 -4 86 86 WNW 9 15 30.03 1017 1 2 0.00 0.00
9:31 am 09:31 Cloudy with Light Snow 30 -1.1 26 -3.3 85 85 WNW 10 17 30.03 1017 2 3 0.00 0.03
9:42 am 09:42 Cloudy with Light Snow 30 -1 27 -3 86 86 NW 8 13 30.03 1017 6 10 0.00 0.00
9:54 am 09:54 Mostly Cloudy 30 -1.1 26 -3.3 85 85 NW 8 13 30.01 1016 9 14 0.00 0.03
10:54 am 10:54 Partly Cloudy 33 0.6 23 -5 66 66 NW 16 26 30.03 1017 10 16 0.00 0.00
11:54 am 11:54 Cloudy 33 0.6 23 -5 66 66 NW 15 24 30.02 1017 10 16 0.00 0.00
12:54 pm 12:54 Cloudy 32 0 20 -6.7 61 61 NW 18 30 29.99 1016 10 16 0.00 0.00
1:54 pm 13:54 Cloudy 32 0 21 -6.1 64 64 NW 12 19 29.98 1015 10 16 0.00 0.00
2:54 pm 14:54 Cloudy 32 0 22 -5.6 66 66 NW 10 17 29.99 1016 10 16 0.00 0.00
3:54 pm 15:54 Cloudy 33 0.6 23 -5 66 66 W 10 17 29.99 1016 10 16 0.00 0.00
4:54 pm 16:54 Cloudy 34 1.1 23 -5 64 64 W 12 19 29.99 1016 10 16 0.00 0.00
5:54 pm 17:54 Mostly Cloudy 33 0.6 24 -4.4 70 70 WSW 10 17 29.97 1015 10 16 0.00 0.00
6:54 pm 18:54 Cloudy 31 -0.6 24 -4.4 76 76 WSW 10 17 29.97 1015 10 16 0.00 0.00
7:54 pm 19:54 Mostly Cloudy 31 -0.6 24 -4.4 76 76 WSW 7 11 29.95 1014 10 16 0.00 0.00
8:54 pm 20:54 Cloudy 34 1.1 26 -3.3 73 73 W 12 19 29.96 1015 10 16 0.00 0.00
9:54 pm 21:54 Cloudy 36 2.2 27 -2.8 70 70 WNW 14 22 29.96 1015 10 16 0.00 0.00
10:54 pm 22:54 Cloudy 36 2.2 27 -2.8 70 70 WNW 13 20 29.97 1015 10 16 0.00 0.00
11:08 pm 23:08 Cloudy 36 2.2 27 -2.8 70 70 NW 15 24 30.00 1016 10 16 0.00 0.00
11:34 pm 23:34 Cloudy 36 2 28 -2 75 75 NW 10 17 30.03 1017 10 16 0.00 0.00
11:54 pm 23:54 Cloudy 36 2.2 25 -3.9 64 64 NNW 17 28 30.00 1016 10 16 0.00 0.00

Powered by AerisWeather